Time,TemperatureF,DewpointF,PressureIn,WindDirection,WindDirectionDegrees,WindSpeedMPH,WindSpeedGustMPH,Humidity,HourlyPrecipIn,Conditions,Clouds,dailyrainin,SoftwareType,DateUTC
2013-05-31 00:01:00,70.3,67.5,29.96,SSW,195,1.0,2.0,91,0.00,,,0.00,Wunderground v.1.15,2013-05-31 04:01:00,
2013-05-31 00:02:00,70.2,67.4,29.96,SSW,195,1.0,2.0,91,0.00,,,0.00,Wunderground v.1.15,2013-05-31 04:02:00,
2013-05-31 00:03:00,70.2,67.4,29.96,SSW,195,1.0,2.0,91,0.00,,,0.00,Wunderground v.1.15,2013-05-31 04:03:00,
2013-05-31 00:04:00,70.1,67.3,29.95,SSW,195,1.0,2.0,91,0.00,,,0.00,Wunderground v.1.15,2013-05-31 04:04:00,
2013-05-31 00:09:00,69.9,67.5,29.96,SSW,195,1.0,2.0,92,0.00,,,0.00,Wunderground v.1.15,2013-05-31 04:09:00,
2013-05-31 00:14:00,69.8,67.4,29.96,SSW,195,0.0,1.0,92,0.00,,,0.00,Wunderground v.1.15,2013-05-31 04:14:00,
2013-05-31 00:15:00,69.8,67.4,29.96,SSW,194,0.0,1.0,92,0.00,,,0.00,Wunderground v.1.15,2013-05-31 04:15:00,
2013-05-31 00:20:00,69.7,67.3,29.96,SSW,194,1.0,2.0,92,0.00,,,0.00,Wunderground v.1.15,2013-05-31 04:20:00,
2013-05-31 00:26:00,69.5,67.1,29.96,SSW,194,2.0,3.0,92,0.00,,,0.00,Wunderground v.1.15,2013-05-31 04:26:00,
2013-05-31 00:31:00,69.4,67.3,29.96,SSW,194,2.0,2.0,93,0.00,,,0.00,Wunderground v.1.15,2013-05-31 04:31:00,
2013-05-31 00:37:00,69.2,66.8,29.96,SSW,194,2.0,3.0,92,0.00,,,0.00,Wunderground v.1.15,2013-05-31 04:37:00,
2013-05-31 00:42:00,69.1,66.7,29.96,SSW,194,1.0,2.0,92,0.00,,,0.00,Wunderground v.1.15,2013-05-31 04:42:00,
2013-05-31 00:47:00,69.1,66.7,29.96,SSW,194,1.0,2.0,92,0.00,,,0.00,Wunderground v.1.15,2013-05-31 04:47:00,
2013-05-31 00:53:00,69.2,66.8,29.96,SSW,194,1.0,3.0,92,0.00,,,0.00,Wunderground v.1.15,2013-05-31 04:53:00,
2013-05-31 00:58:00,69.2,66.8,29.96,SSW,194,1.0,3.0,92,0.00,,,0.00,Wunderground v.1.15,2013-05-31 04:58:00,
2013-05-31 01:03:00,69.3,66.9,29.96,SSW,194,1.0,1.0,92,0.00,,,0.00,Wunderground v.1.15,2013-05-31 05:03:00,
2013-05-31 01:09:00,69.3,66.9,29.95,SSW,194,0.0,1.0,92,0.00,,,0.00,Wunderground v.1.15,2013-05-31 05:09:00,
2013-05-31 01:14:00,69.4,67.0,29.95,SSW,194,0.0,3.0,92,0.00,,,0.00,Wunderground v.1.15,2013-05-31 05:14:00,
2013-05-31 01:19:00,69.3,66.9,29.95,SSW,194,0.0,3.0,92,0.00,,,0.00,Wunderground v.1.15,2013-05-31 05:19:00,
2013-05-31 01:24:00,69.2,66.8,29.95,SSW,194,0.0,0.0,92,0.00,,,0.00,Wunderground v.1.15,2013-05-31 05:24:00,
2013-05-31 01:30:00,69.0,66.9,29.94,SSW,194,0.0,1.0,93,0.00,,,0.00,Wunderground v.1.15,2013-05-31 05:30:00,
2013-05-31 01:35:00,68.9,66.8,29.95,SSW,194,1.0,1.0,93,0.00,,,0.00,Wunderground v.1.15,2013-05-31 05:35:00,
2013-05-31 01:40:00,68.8,66.7,29.95,SSW,194,0.0,0.0,93,0.00,,,0.00,Wunderground v.1.15,2013-05-31 05:40:00,
2013-05-31 01:46:00,68.8,67.0,29.95,SSW,194,0.0,0.0,94,0.00,,,0.00,Wunderground v.1.15,2013-05-31 05:46:00,
2013-05-31 01:51:00,68.8,67.0,29.94,SSW,194,0.0,0.0,94,0.00,,,0.00,Wunderground v.1.15,2013-05-31 05:51:00,
2013-05-31 01:57:00,68.7,66.9,29.95,SSW,194,0.0,2.0,94,0.00,,,0.00,Wunderground v.1.15,2013-05-31 05:57:00,
2013-05-31 02:02:00,68.8,67.0,29.94,SSW,194,0.0,1.0,94,0.00,,,0.00,Wunderground v.1.15,2013-05-31 06:02:00,
2013-05-31 02:07:00,68.7,66.9,29.94,SSW,194,0.0,1.0,94,0.00,,,0.00,Wunderground v.1.15,2013-05-31 06:07:00,
2013-05-31 02:12:00,68.6,66.8,29.94,SSW,194,0.0,0.0,94,0.00,,,0.00,Wunderground v.1.15,2013-05-31 06:12:00,
2013-05-31 02:18:00,68.7,66.9,29.94,SSW,194,0.0,0.0,94,0.00,,,0.00,Wunderground v.1.15,2013-05-31 06:18:00,
2013-05-31 02:23:00,68.6,66.8,29.94,SSW,194,0.0,0.0,94,0.00,,,0.00,Wunderground v.1.15,2013-05-31 06:23:00,
2013-05-31 02:28:00,68.7,66.9,29.93,SSW,194,0.0,0.0,94,0.00,,,0.00,Wunderground v.1.15,2013-05-31 06:28:00,
2013-05-31 02:33:00,68.7,66.9,29.94,SSW,194,0.0,0.0,94,0.00,,,0.00,Wunderground v.1.15,2013-05-31 06:33:00,
2013-05-31 02:39:00,68.6,66.8,29.94,SSW,194,0.0,0.0,94,0.00,,,0.00,Wunderground v.1.15,2013-05-31 06:39:00,
2013-05-31 02:44:00,68.6,66.8,29.94,SSW,194,0.0,0.0,94,0.00,,,0.00,Wunderground v.1.15,2013-05-31 06:44:00,
2013-05-31 02:49:00,68.7,66.9,29.94,SSW,194,0.0,0.0,94,0.00,,,0.00,Wunderground v.1.15,2013-05-31 06:49:00,
2013-05-31 02:55:00,68.6,66.8,29.94,SSW,194,0.0,0.0,94,0.00,,,0.00,Wunderground v.1.15,2013-05-31 06:55:00,
2013-05-31 03:01:00,68.6,66.8,29.94,SSW,194,0.0,0.0,94,0.00,,,0.00,Wunderground v.1.15,2013-05-31 07:01:00,
2013-05-31 03:06:00,68.5,66.7,29.93,SSW,194,0.0,0.0,94,0.00,,,0.00,Wunderground v.1.15,2013-05-31 07:06:00,
2013-05-31 03:12:00,68.7,66.9,29.93,SSW,194,1.0,1.0,94,0.00,,,0.00,Wunderground v.1.15,2013-05-31 07:12:00,
2013-05-31 03:18:00,68.9,66.8,29.94,SSW,194,2.0,2.0,93,0.00,,,0.00,Wunderground v.1.15,2013-05-31 07:18:00,
2013-05-31 03:23:00,69.0,66.9,29.94,SSW,194,2.0,2.0,93,0.00,,,0.00,Wunderground v.1.15,2013-05-31 07:23:00,
2013-05-31 03:29:00,69.0,66.9,29.93,SSW,194,2.0,3.0,93,0.00,,,0.00,Wunderground v.1.15,2013-05-31 07:29:00,
2013-05-31 03:34:00,69.0,66.6,29.93,SSW,194,2.0,3.0,92,0.00,,,0.00,Wunderground v.1.15,2013-05-31 07:34:00,
2013-05-31 03:39:00,69.0,66.6,29.93,SSW,194,2.0,4.0,92,0.00,,,0.00,Wunderground v.1.15,2013-05-31 07:39:00,
2013-05-31 03:44:00,68.9,66.5,29.93,SSW,194,1.0,3.0,92,0.00,,,0.00,Wunderground v.1.15,2013-05-31 07:44:00,
2013-05-31 03:50:00,68.9,66.5,29.93,SSW,194,2.0,2.0,92,0.00,,,0.00,Wunderground v.1.15,2013-05-31 07:50:00,
2013-05-31 03:55:00,68.9,66.5,29.92,SSW,194,2.0,2.0,92,0.00,,,0.00,Wunderground v.1.15,2013-05-31 07:55:00,
2013-05-31 04:00:00,68.8,66.4,29.92,SSW,194,1.0,1.0,92,0.00,,,0.00,Wunderground v.1.15,2013-05-31 08:00:00,
2013-05-31 04:06:00,68.8,66.4,29.92,SSW,194,1.0,2.0,92,0.00,,,0.00,Wunderground v.1.15,2013-05-31 08:06:00,
2013-05-31 04:11:00,68.8,66.4,29.92,SSW,194,1.0,1.0,92,0.00,,,0.00,Wunderground v.1.15,2013-05-31 08:11:00,
2013-05-31 04:16:00,68.8,66.4,29.92,SSW,194,1.0,1.0,92,0.00,,,0.00,Wunderground v.1.15,2013-05-31 08:16:00,
2013-05-31 04:22:00,68.8,66.4,29.92,SSW,194,0.0,3.0,92,0.00,,,0.00,Wunderground v.1.15,2013-05-31 08:22:00,
2013-05-31 04:28:00,68.8,66.4,29.92,SSW,194,1.0,3.0,92,0.00,,,0.00,Wunderground v.1.15,2013-05-31 08:28:00,
2013-05-31 04:34:00,68.8,66.4,29.92,SSW,194,0.0,1.0,92,0.00,,,0.00,Wunderground v.1.15,2013-05-31 08:34:00,
2013-05-31 04:39:00,68.9,66.2,29.92,SSW,194,0.0,1.0,91,0.00,,,0.00,Wunderground v.1.15,2013-05-31 08:39:00,
2013-05-31 04:44:00,68.9,66.2,29.92,SSW,194,0.0,0.0,91,0.00,,,0.00,Wunderground v.1.15,2013-05-31 08:44:00,
2013-05-31 04:50:00,68.7,66.0,29.92,SSW,194,0.0,0.0,91,0.00,,,0.00,Wunderground v.1.15,2013-05-31 08:50:00,
2013-05-31 04:56:00,68.6,66.2,29.92,SSW,194,0.0,0.0,92,0.00,,,0.00,Wunderground v.1.15,2013-05-31 08:56:00,
2013-05-31 05:01:00,68.5,66.1,29.92,SSW,194,0.0,0.0,92,0.00,,,0.00,Wunderground v.1.15,2013-05-31 09:01:00,
2013-05-31 05:07:00,68.3,65.9,29.92,SSW,194,0.0,0.0,92,0.00,,,0.00,Wunderground v.1.15,2013-05-31 09:07:00,
2013-05-31 05:12:00,68.2,65.8,29.92,SSW,194,0.0,0.0,92,0.00,,,0.00,Wunderground v.1.15,2013-05-31 09:12:00,
2013-05-31 05:17:00,68.1,65.7,29.92,SSW,194,0.0,0.0,92,0.00,,,0.00,Wunderground v.1.15,2013-05-31 09:17:00,
2013-05-31 05:22:00,68.0,65.9,29.92,SSW,194,0.0,1.0,93,0.00,,,0.00,Wunderground v.1.15,2013-05-31 09:22:00,
2013-05-31 05:28:00,67.9,65.8,29.92,SSW,194,0.0,1.0,93,0.00,,,0.00,Wunderground v.1.15,2013-05-31 09:28:00,
2013-05-31 05:33:00,67.9,65.8,29.92,SSW,194,0.0,1.0,93,0.00,,,0.00,Wunderground v.1.15,2013-05-31 09:33:00,
2013-05-31 05:38:00,67.8,65.7,29.92,SSW,194,1.0,2.0,93,0.00,,,0.00,Wunderground v.1.15,2013-05-31 09:38:00,
2013-05-31 05:43:00,67.7,65.6,29.91,SSW,194,1.0,3.0,93,0.00,,,0.00,Wunderground v.1.15,2013-05-31 09:43:00,
2013-05-31 05:48:00,67.7,65.6,29.91,SSW,194,1.0,3.0,93,0.00,,,0.00,Wunderground v.1.15,2013-05-31 09:48:00,
2013-05-31 05:54:00,67.7,65.6,29.91,SSW,194,2.0,3.0,93,0.00,,,0.00,Wunderground v.1.15,2013-05-31 09:54:00,
2013-05-31 05:59:00,67.6,65.5,29.91,SSW,194,2.0,3.0,93,0.00,,,0.00,Wunderground v.1.15,2013-05-31 09:59:00,
2013-05-31 06:04:00,67.6,65.5,29.91,SSW,194,3.0,3.0,93,0.00,,,0.00,Wunderground v.1.15,2013-05-31 10:04:00,
2013-05-31 06:09:00,67.5,65.4,29.91,SSW,194,2.0,3.0,93,0.00,,,0.00,Wunderground v.1.15,2013-05-31 10:09:00,
2013-05-31 06:15:00,67.4,65.3,29.91,SSW,194,2.0,3.0,93,0.00,,,0.00,Wunderground v.1.15,2013-05-31 10:15:00,
2013-05-31 06:20:00,67.3,65.2,29.92,SSW,194,2.0,2.0,93,0.00,,,0.00,Wunderground v.1.15,2013-05-31 10:20:00,
2013-05-31 06:26:00,67.2,65.1,29.91,SSW,194,1.0,2.0,93,0.00,,,0.00,Wunderground v.1.15,2013-05-31 10:26:00,
2013-05-31 06:32:00,67.3,65.5,29.92,SSW,194,1.0,2.0,94,0.00,,,0.00,Wunderground v.1.15,2013-05-31 10:32:00,
2013-05-31 06:37:00,67.4,65.3,29.92,SSW,194,2.0,3.0,93,0.00,,,0.00,Wunderground v.1.15,2013-05-31 10:37:00,
2013-05-31 06:43:00,67.7,65.6,29.92,SSW,194,2.0,4.0,93,0.00,,,0.00,Wunderground v.1.15,2013-05-31 10:43:00,
2013-05-31 06:48:00,67.9,65.8,29.92,South,178,2.0,5.0,93,0.00,,,0.00,Wunderground v.1.15,2013-05-31 10:48:00,
2013-05-31 06:53:00,68.1,65.7,29.92,South,178,3.0,5.0,92,0.00,,,0.00,Wunderground v.1.15,2013-05-31 10:53:00,
2013-05-31 06:58:00,68.3,65.9,29.92,South,178,2.0,5.0,92,0.00,,,0.00,Wunderground v.1.15,2013-05-31 10:58:00,
2013-05-31 07:03:00,68.5,66.1,29.92,South,178,2.0,3.0,92,0.00,,,0.00,Wunderground v.1.15,2013-05-31 11:03:00,
2013-05-31 07:09:00,68.9,66.2,29.92,South,178,2.0,3.0,91,0.00,,,0.00,Wunderground v.1.15,2013-05-31 11:09:00,
2013-05-31 07:14:00,69.2,66.5,29.92,South,178,2.0,3.0,91,0.00,,,0.00,Wunderground v.1.15,2013-05-31 11:14:00,
2013-05-31 07:19:00,69.5,66.4,29.92,South,178,2.0,3.0,90,0.00,,,0.00,Wunderground v.1.15,2013-05-31 11:19:00,
2013-05-31 07:25:00,69.8,66.7,29.92,South,178,2.0,3.0,90,0.00,,,0.00,Wunderground v.1.15,2013-05-31 11:25:00,
2013-05-31 07:30:00,70.0,66.6,29.92,South,178,2.0,3.0,89,0.00,,,0.00,Wunderground v.1.15,2013-05-31 11:30:00,
2013-05-31 07:36:00,70.1,66.7,29.92,South,178,2.0,3.0,89,0.00,,,0.00,Wunderground v.1.15,2013-05-31 11:36:00,
2013-05-31 07:41:00,70.3,66.9,29.92,South,178,2.0,2.0,89,0.00,,,0.00,Wunderground v.1.15,2013-05-31 11:41:00,
2013-05-31 07:47:00,70.7,67.0,29.92,South,178,2.0,2.0,88,0.00,,,0.00,Wunderground v.1.15,2013-05-31 11:47:00,
2013-05-31 07:53:00,71.2,67.1,29.92,South,189,3.0,7.0,87,0.00,,,0.00,Wunderground v.1.15,2013-05-31 11:53:00,
2013-05-31 07:58:00,71.4,67.0,29.92,South,182,5.0,8.0,86,0.00,,,0.00,Wunderground v.1.15,2013-05-31 11:58:00,
2013-05-31 08:04:00,71.7,67.3,29.92,SSW,192,5.0,7.0,86,0.00,,,0.00,Wunderground v.1.15,2013-05-31 12:04:00,
2013-05-31 08:10:00,72.0,67.6,29.92,South,173,5.0,5.0,86,0.00,,,0.00,Wunderground v.1.15,2013-05-31 12:10:00,
2013-05-31 08:15:00,72.2,67.4,29.92,South,191,6.0,8.0,85,0.00,,,0.00,Wunderground v.1.15,2013-05-31 12:15:00,
2013-05-31 08:20:00,72.4,67.6,29.92,South,179,7.0,7.0,85,0.00,,,0.00,Wunderground v.1.15,2013-05-31 12:20:00,
2013-05-31 08:26:00,72.6,67.5,29.91,SSW,202,7.0,8.0,84,0.00,,,0.00,Wunderground v.1.15,2013-05-31 12:26:00,
2013-05-31 08:31:00,72.9,67.8,29.91,SW,216,7.0,8.0,84,0.00,,,0.00,Wunderground v.1.15,2013-05-31 12:31:00,
2013-05-31 08:37:00,73.3,67.8,29.92,SSW,211,7.0,10.0,83,0.00,,,0.00,Wunderground v.1.15,2013-05-31 12:37:00,
2013-05-31 08:42:00,73.7,68.2,29.91,SSE,161,7.0,10.0,83,0.00,,,0.00,Wunderground v.1.15,2013-05-31 12:42:00,
2013-05-31 08:47:00,73.9,68.4,29.91,SW,215,8.0,10.0,83,0.00,,,0.00,Wunderground v.1.15,2013-05-31 12:47:00,
2013-05-31 08:53:00,74.2,68.3,29.91,SW,215,8.0,12.0,82,0.00,,,0.00,Wunderground v.1.15,2013-05-31 12:53:00,
2013-05-31 08:58:00,74.6,68.7,29.91,South,184,6.0,12.0,82,0.00,,,0.00,Wunderground v.1.15,2013-05-31 12:58:00,
2013-05-31 09:03:00,74.8,68.6,29.91,SSE,157,7.0,15.0,81,0.00,,,0.00,Wunderground v.1.15,2013-05-31 13:03:00,
2013-05-31 09:09:00,75.0,68.4,29.91,SSW,196,8.0,15.0,80,0.00,,,0.00,Wunderground v.1.15,2013-05-31 13:09:00,
2013-05-31 09:14:00,75.1,68.5,29.91,SSW,202,9.0,13.0,80,0.00,,,0.00,Wunderground v.1.15,2013-05-31 13:14:00,
2013-05-31 09:19:00,75.1,68.1,29.91,SSW,198,10.0,19.0,79,0.00,,,0.00,Wunderground v.1.15,2013-05-31 13:19:00,
2013-05-31 09:24:00,75.3,68.3,29.91,SSW,203,9.0,14.0,79,0.00,,,0.00,Wunderground v.1.15,2013-05-31 13:24:00,
2013-05-31 09:29:00,75.5,68.5,29.91,South,190,8.0,16.0,79,0.00,,,0.00,Wunderground v.1.15,2013-05-31 13:29:00,
2013-05-31 09:35:00,76.0,68.6,29.91,SSW,206,8.0,10.0,78,0.00,,,0.00,Wunderground v.1.15,2013-05-31 13:35:00,
2013-05-31 09:40:00,76.1,68.4,29.90,SSW,208,9.0,10.0,77,0.00,,,0.00,Wunderground v.1.15,2013-05-31 13:40:00,
2013-05-31 09:45:00,76.4,68.7,29.91,SSW,196,10.0,16.0,77,0.00,,,0.00,Wunderground v.1.15,2013-05-31 13:45:00,
2013-05-31 09:50:00,76.6,68.8,29.91,SW,231,9.0,9.0,77,0.00,,,0.00,Wunderground v.1.15,2013-05-31 13:50:00,
2013-05-31 09:56:00,76.8,68.7,29.90,SW,219,9.0,11.0,76,0.00,,,0.00,Wunderground v.1.15,2013-05-31 13:56:00,
2013-05-31 10:02:00,77.2,68.7,29.90,SW,221,10.0,11.0,75,0.00,,,0.00,Wunderground v.1.15,2013-05-31 14:02:00,
2013-05-31 10:07:00,77.3,68.8,29.90,SSW,208,10.0,11.0,75,0.00,,,0.00,Wunderground v.1.15,2013-05-31 14:07:00,
2013-05-31 10:12:00,77.4,68.5,29.90,SW,221,11.0,17.0,74,0.00,,,0.00,Wunderground v.1.15,2013-05-31 14:12:00,
2013-05-31 10:17:00,77.6,68.7,29.90,SSW,197,11.0,17.0,74,0.00,,,0.00,Wunderground v.1.15,2013-05-31 14:17:00,
2013-05-31 10:23:00,77.8,68.4,29.90,South,188,10.0,12.0,73,0.00,,,0.00,Wunderground v.1.15,2013-05-31 14:23:00,
2013-05-31 10:28:00,77.9,68.5,29.90,SSW,209,12.0,19.0,73,0.00,,,0.01,Wunderground v.1.15,2013-05-31 14:28:00,
2013-05-31 10:34:00,78.1,68.7,29.89,SSW,211,12.0,13.0,73,0.00,,,0.01,Wunderground v.1.15,2013-05-31 14:34:00,
2013-05-31 10:39:00,78.6,68.8,29.89,SSW,194,10.0,13.0,72,0.00,,,0.01,Wunderground v.1.15,2013-05-31 14:39:00,
2013-05-31 10:44:00,78.7,68.9,29.89,SW,232,10.0,16.0,72,0.00,,,0.01,Wunderground v.1.15,2013-05-31 14:44:00,
2013-05-31 10:49:00,78.9,68.7,29.89,South,186,10.0,16.0,71,0.00,,,0.01,Wunderground v.1.15,2013-05-31 14:49:00,
2013-05-31 10:55:00,79.2,68.6,29.88,South,188,9.0,12.0,70,0.00,,,0.01,Wunderground v.1.15,2013-05-31 14:55:00,
2013-05-31 11:00:00,79.4,68.8,29.89,SW,223,9.0,9.0,70,0.00,,,0.01,Wunderground v.1.15,2013-05-31 15:00:00,
2013-05-31 11:06:00,79.5,68.4,29.89,SSW,213,11.0,17.0,69,0.00,,,0.01,Wunderground v.1.15,2013-05-31 15:06:00,
2013-05-31 11:11:00,79.3,68.2,29.89,SW,217,11.0,15.0,69,0.00,,,0.01,Wunderground v.1.15,2013-05-31 15:11:00,
2013-05-31 11:17:00,79.7,69.0,29.88,SW,229,10.0,15.0,70,0.00,,,0.01,Wunderground v.1.15,2013-05-31 15:17:00,
2013-05-31 11:23:00,79.8,68.3,29.89,South,180,11.0,18.0,68,0.00,,,0.01,Wunderground v.1.15,2013-05-31 15:23:00,
2013-05-31 11:28:00,79.8,68.3,29.88,SSW,196,11.0,18.0,68,0.00,,,0.01,Wunderground v.1.15,2013-05-31 15:28:00,
2013-05-31 11:33:00,79.8,68.3,29.88,SSW,204,11.0,13.0,68,0.00,,,0.01,Wunderground v.1.15,2013-05-31 15:33:00,
2013-05-31 11:39:00,80.3,68.3,29.88,SSW,206,10.0,13.0,67,0.00,,,0.01,Wunderground v.1.15,2013-05-31 15:39:00,
2013-05-31 11:44:00,80.7,68.3,29.88,SSW,196,9.0,21.0,66,0.00,,,0.01,Wunderground v.1.15,2013-05-31 15:44:00,
2013-05-31 11:49:00,80.5,68.1,29.88,SSW,202,11.0,21.0,66,0.00,,,0.01,Wunderground v.1.15,2013-05-31 15:49:00,
2013-05-31 11:54:00,80.6,68.6,29.88,SW,216,12.0,16.0,67,0.00,,,0.01,Wunderground v.1.15,2013-05-31 15:54:00,
2013-05-31 12:00:00,80.8,68.8,29.89,SW,235,10.0,10.0,67,0.00,,,0.01,Wunderground v.1.15,2013-05-31 16:00:00,
2013-05-31 12:06:00,81.0,68.6,29.88,SSW,207,8.0,10.0,66,0.00,,,0.01,Wunderground v.1.15,2013-05-31 16:06:00,
2013-05-31 12:12:00,80.4,68.4,29.89,SSW,200,9.0,15.0,67,0.00,,,0.01,Wunderground v.1.15,2013-05-31 16:12:00,
2013-05-31 12:17:00,80.4,68.4,29.88,South,181,12.0,18.0,67,0.00,,,0.01,Wunderground v.1.15,2013-05-31 16:17:00,
2013-05-31 12:22:00,80.5,68.1,29.88,South,183,12.0,15.0,66,0.00,,,0.01,Wunderground v.1.15,2013-05-31 16:22:00,
2013-05-31 12:28:00,80.6,67.7,29.88,WSW,238,13.0,19.0,65,0.00,,,0.01,Wunderground v.1.15,2013-05-31 16:28:00,
2013-05-31 12:33:00,80.7,68.3,29.88,South,173,11.0,12.0,66,0.00,,,0.01,Wunderground v.1.15,2013-05-31 16:33:00,
2013-05-31 12:38:00,80.5,68.1,29.87,South,177,9.0,14.0,66,0.00,,,0.01,Wunderground v.1.15,2013-05-31 16:38:00,
2013-05-31 12:44:00,80.3,67.9,29.87,SW,223,8.0,9.0,66,0.00,,,0.01,Wunderground v.1.15,2013-05-31 16:44:00,
2013-05-31 12:49:00,79.9,68.0,29.87,SSW,194,9.0,11.0,67,0.00,,,0.01,Wunderground v.1.15,2013-05-31 16:49:00,
2013-05-31 12:54:00,79.8,67.9,29.87,South,188,10.0,15.0,67,0.00,,,0.01,Wunderground v.1.15,2013-05-31 16:54:00,
2013-05-31 13:00:00,79.6,67.7,29.88,SW,236,12.0,12.0,67,0.00,,,0.01,Wunderground v.1.15,2013-05-31 17:00:00,
2013-05-31 13:06:00,78.4,68.6,29.89,SSW,197,11.0,21.0,72,1.02,,,0.13,Wunderground v.1.15,2013-05-31 17:06:00,
2013-05-31 13:12:00,73.4,67.2,29.89,West,269,9.0,10.0,81,0.13,,,0.17,Wunderground v.1.15,2013-05-31 17:12:00,
2013-05-31 13:17:00,71.8,67.4,29.89,WSW,240,7.0,10.0,86,0.07,,,0.18,Wunderground v.1.15,2013-05-31 17:17:00,
2013-05-31 13:22:00,71.6,67.9,29.89,SW,216,6.0,8.0,88,0.07,,,0.18,Wunderground v.1.15,2013-05-31 17:22:00,
2013-05-31 13:28:00,71.7,68.3,29.89,West,267,6.0,8.0,89,0.05,,,0.18,Wunderground v.1.15,2013-05-31 17:28:00,
2013-05-31 13:33:00,72.1,68.3,29.89,SW,234,6.0,10.0,88,0.04,,,0.18,Wunderground v.1.15,2013-05-31 17:33:00,
2013-05-31 13:38:00,72.4,68.3,29.89,WSW,242,7.0,13.0,87,0.00,,,0.18,Wunderground v.1.15,2013-05-31 17:38:00,
2013-05-31 13:43:00,72.8,68.7,29.89,SW,218,8.0,9.0,87,0.00,,,0.18,Wunderground v.1.15,2013-05-31 17:43:00,
2013-05-31 13:49:00,73.1,69.0,29.89,WSW,239,9.0,15.0,87,0.00,,,0.18,Wunderground v.1.15,2013-05-31 17:49:00,
2013-05-31 13:54:00,73.3,68.9,29.89,WSW,255,10.0,19.0,86,0.00,,,0.18,Wunderground v.1.15,2013-05-31 17:54:00,
2013-05-31 13:59:00,73.3,68.2,29.89,SSW,213,10.0,19.0,84,0.00,,,0.18,Wunderground v.1.15,2013-05-31 17:59:00,
2013-05-31 14:04:00,73.7,67.9,29.89,SW,228,10.0,10.0,82,0.00,,,0.18,Wunderground v.1.15,2013-05-31 18:04:00,
2013-05-31 14:10:00,74.2,68.0,29.89,SW,217,11.0,11.0,81,0.00,,,0.18,Wunderground v.1.15,2013-05-31 18:10:00,
2013-05-31 14:15:00,74.7,68.5,29.89,SW,217,10.0,20.0,81,0.00,,,0.18,Wunderground v.1.15,2013-05-31 18:15:00,
2013-05-31 14:20:00,75.0,68.4,29.89,SSW,202,11.0,11.0,80,0.00,,,0.18,Wunderground v.1.15,2013-05-31 18:20:00,
2013-05-31 14:25:00,75.5,68.2,29.88,SW,220,11.0,15.0,78,0.00,,,0.18,Wunderground v.1.15,2013-05-31 18:25:00,
2013-05-31 14:31:00,75.9,67.8,29.88,WSW,244,11.0,17.0,76,0.00,,,0.18,Wunderground v.1.15,2013-05-31 18:31:00,
2013-05-31 14:36:00,75.5,67.8,29.88,SW,236,12.0,17.0,77,0.00,,,0.18,Wunderground v.1.15,2013-05-31 18:36:00,
2013-05-31 14:42:00,75.3,67.6,29.88,West,265,11.0,14.0,77,0.00,,,0.18,Wunderground v.1.15,2013-05-31 18:42:00,
2013-05-31 14:47:00,74.9,67.2,29.87,SW,232,10.0,15.0,77,0.00,,,0.18,Wunderground v.1.15,2013-05-31 18:47:00,
2013-05-31 14:52:00,74.8,67.8,29.88,SSW,193,9.0,12.0,79,0.00,,,0.18,Wunderground v.1.15,2013-05-31 18:52:00,
2013-05-31 14:58:00,74.6,68.0,29.87,SW,221,9.0,14.0,80,0.00,,,0.18,Wunderground v.1.15,2013-05-31 18:58:00,
2013-05-31 15:03:00,74.5,67.9,29.87,SW,222,9.0,12.0,80,0.00,,,0.18,Wunderground v.1.15,2013-05-31 19:03:00,
2013-05-31 15:08:00,74.4,67.5,29.87,WSW,240,9.0,12.0,79,0.00,,,0.18,Wunderground v.1.15,2013-05-31 19:08:00,
2013-05-31 15:14:00,74.5,67.9,29.87,SW,231,8.0,11.0,80,0.00,,,0.18,Wunderground v.1.15,2013-05-31 19:14:00,
2013-05-31 15:19:00,74.5,68.3,29.86,WSW,251,7.0,12.0,81,0.00,,,0.18,Wunderground v.1.15,2013-05-31 19:19:00,
2013-05-31 15:24:00,74.8,68.2,29.86,SW,234,6.0,9.0,80,0.00,,,0.18,Wunderground v.1.15,2013-05-31 19:24:00,
2013-05-31 15:29:00,74.9,68.7,29.86,WSW,246,6.0,11.0,81,0.00,,,0.18,Wunderground v.1.15,2013-05-31 19:29:00,
2013-05-31 15:35:00,75.0,69.1,29.86,WSW,238,7.0,11.0,82,0.00,,,0.18,Wunderground v.1.15,2013-05-31 19:35:00,
2013-05-31 15:40:00,74.8,68.6,29.86,SW,219,9.0,9.0,81,0.00,,,0.18,Wunderground v.1.15,2013-05-31 19:40:00,
2013-05-31 15:46:00,74.8,68.6,29.86,SW,222,9.0,10.0,81,0.00,,,0.18,Wunderground v.1.15,2013-05-31 19:46:00,
2013-05-31 15:51:00,74.8,68.6,29.86,West,259,9.0,9.0,81,0.00,,,0.18,Wunderground v.1.15,2013-05-31 19:51:00,
2013-05-31 15:57:00,75.0,68.8,29.86,West,274,10.0,13.0,81,0.00,,,0.18,Wunderground v.1.15,2013-05-31 19:57:00,
2013-05-31 16:03:00,75.2,68.2,29.86,WSW,238,10.0,16.0,79,0.00,,,0.18,Wunderground v.1.15,2013-05-31 20:03:00,
2013-05-31 16:09:00,75.4,68.4,29.86,SSW,202,9.0,16.0,79,0.00,,,0.18,Wunderground v.1.15,2013-05-31 20:09:00,
2013-05-31 16:14:00,75.4,68.4,29.86,WSW,242,9.0,13.0,79,0.00,,,0.18,Wunderground v.1.15,2013-05-31 20:14:00,
2013-05-31 16:19:00,75.3,67.6,29.85,SSW,194,10.0,18.0,77,0.00,,,0.18,Wunderground v.1.15,2013-05-31 20:19:00,
2013-05-31 16:25:00,75.4,68.1,29.85,West,263,10.0,10.0,78,0.00,,,0.18,Wunderground v.1.15,2013-05-31 20:25:00,
2013-05-31 16:30:00,75.4,67.3,29.85,SW,221,8.0,8.0,76,0.00,,,0.18,Wunderground v.1.15,2013-05-31 20:30:00,
2013-05-31 16:35:00,75.6,67.1,29.84,SW,230,8.0,13.0,75,0.00,,,0.18,Wunderground v.1.15,2013-05-31 20:35:00,
2013-05-31 16:41:00,76.1,67.6,29.85,SSW,213,8.0,12.0,75,0.00,,,0.18,Wunderground v.1.15,2013-05-31 20:41:00,
2013-05-31 16:47:00,76.0,67.5,29.85,SW,220,7.0,13.0,75,0.00,,,0.18,Wunderground v.1.15,2013-05-31 20:47:00,
2013-05-31 16:52:00,75.8,66.9,29.85,SW,216,9.0,12.0,74,0.00,,,0.18,Wunderground v.1.15,2013-05-31 20:52:00,
2013-05-31 16:57:00,75.7,66.4,29.85,SW,219,10.0,12.0,73,0.00,,,0.18,Wunderground v.1.15,2013-05-31 20:57:00,
2013-05-31 17:03:00,76.2,66.9,29.85,West,266,7.0,8.0,73,0.00,,,0.18,Wunderground v.1.15,2013-05-31 21:03:00,
2013-05-31 17:08:00,76.1,66.4,29.86,South,184,7.0,12.0,72,0.00,,,0.18,Wunderground v.1.15,2013-05-31 21:08:00,
2013-05-31 17:13:00,76.1,66.4,29.85,SSE,165,8.0,12.0,72,0.00,,,0.18,Wunderground v.1.15,2013-05-31 21:13:00,
2013-05-31 17:18:00,76.7,67.0,29.85,SW,215,8.0,12.0,72,0.00,,,0.18,Wunderground v.1.15,2013-05-31 21:18:00,
2013-05-31 17:23:00,76.3,67.0,29.86,South,188,8.0,13.0,73,0.00,,,0.18,Wunderground v.1.15,2013-05-31 21:23:00,
2013-05-31 17:29:00,75.8,66.5,29.85,SSW,213,10.0,13.0,73,0.00,,,0.18,Wunderground v.1.15,2013-05-31 21:29:00,
2013-05-31 17:35:00,75.6,66.7,29.85,SSW,207,8.0,9.0,74,0.00,,,0.18,Wunderground v.1.15,2013-05-31 21:35:00,
2013-05-31 17:40:00,75.6,66.3,29.84,SSW,196,7.0,7.0,73,0.00,,,0.18,Wunderground v.1.15,2013-05-31 21:40:00,
2013-05-31 17:45:00,75.7,66.8,29.85,SSW,206,7.0,8.0,74,0.00,,,0.18,Wunderground v.1.15,2013-05-31 21:45:00,
2013-05-31 17:50:00,75.5,66.2,29.85,SW,229,8.0,8.0,73,0.00,,,0.18,Wunderground v.1.15,2013-05-31 21:50:00,
2013-05-31 17:56:00,75.4,66.5,29.86,WSW,241,9.0,12.0,74,0.00,,,0.18,Wunderground v.1.15,2013-05-31 21:56:00,
2013-05-31 18:01:00,75.3,66.0,29.85,SW,222,8.0,9.0,73,0.00,,,0.18,Wunderground v.1.15,2013-05-31 22:01:00,
2013-05-31 18:07:00,75.2,66.3,29.85,SW,227,8.0,12.0,74,0.00,,,0.18,Wunderground v.1.15,2013-05-31 22:07:00,
2013-05-31 18:13:00,75.2,66.3,29.85,SSW,211,7.0,11.0,74,0.00,,,0.18,Wunderground v.1.15,2013-05-31 22:13:00,
2013-05-31 18:18:00,75.2,66.7,29.85,SE,136,7.0,11.0,75,0.00,,,0.18,Wunderground v.1.15,2013-05-31 22:18:00,
2013-05-31 18:24:00,75.2,66.3,29.85,SSW,208,9.0,13.0,74,0.00,,,0.18,Wunderground v.1.15,2013-05-31 22:24:00,
2013-05-31 18:29:00,75.2,66.3,29.85,SW,229,9.0,13.0,74,0.00,,,0.18,Wunderground v.1.15,2013-05-31 22:29:00,
2013-05-31 18:34:00,75.1,66.6,29.85,SW,217,7.0,11.0,75,0.00,,,0.18,Wunderground v.1.15,2013-05-31 22:34:00,
2013-05-31 18:40:00,75.1,66.2,29.85,South,182,7.0,7.0,74,0.00,,,0.18,Wunderground v.1.15,2013-05-31 22:40:00,
2013-05-31 18:45:00,75.1,66.2,29.85,SW,225,6.0,8.0,74,0.00,,,0.18,Wunderground v.1.15,2013-05-31 22:45:00,
2013-05-31 18:50:00,75.1,66.2,29.85,SW,214,6.0,8.0,74,0.00,,,0.18,Wunderground v.1.15,2013-05-31 22:50:00,
2013-05-31 18:56:00,75.1,66.2,29.85,SSW,198,5.0,8.0,74,0.00,,,0.18,Wunderground v.1.15,2013-05-31 22:56:00,
2013-05-31 19:01:00,75.1,66.6,29.85,SSW,198,5.0,8.0,75,0.00,,,0.18,Wunderground v.1.15,2013-05-31 23:01:00,
2013-05-31 19:07:00,74.9,66.4,29.85,SSW,193,6.0,8.0,75,0.00,,,0.18,Wunderground v.1.15,2013-05-31 23:07:00,
2013-05-31 19:12:00,74.8,66.3,29.85,SSW,192,6.0,6.0,75,0.00,,,0.18,Wunderground v.1.15,2013-05-31 23:12:00,
2013-05-31 19:17:00,74.7,66.6,29.85,SW,214,5.0,6.0,76,0.00,,,0.18,Wunderground v.1.15,2013-05-31 23:17:00,
2013-05-31 19:22:00,74.6,66.5,29.85,SW,220,5.0,6.0,76,0.00,,,0.18,Wunderground v.1.15,2013-05-31 23:22:00,
2013-05-31 19:28:00,74.6,66.9,29.84,SW,215,4.0,6.0,77,0.00,,,0.18,Wunderground v.1.15,2013-05-31 23:28:00,
2013-05-31 19:33:00,74.5,66.8,29.84,SW,215,3.0,4.0,77,0.00,,,0.18,Wunderground v.1.15,2013-05-31 23:33:00,
2013-05-31 19:38:00,73.7,67.1,29.85,WSW,252,4.0,5.0,80,0.00,,,0.18,Wunderground v.1.15,2013-05-31 23:38:00,
2013-05-31 19:44:00,72.0,66.9,29.85,West,271,4.0,4.0,84,0.17,,,0.20,Wunderground v.1.15,2013-05-31 23:44:00,
2013-05-31 19:50:00,71.0,67.3,29.85,West,265,2.0,2.0,88,0.13,,,0.22,Wunderground v.1.15,2013-05-31 23:50:00,
2013-05-31 19:55:00,70.8,67.4,29.86,SW,228,2.0,6.0,89,0.07,,,0.23,Wunderground v.1.15,2013-05-31 23:55:00,
2013-05-31 20:00:00,70.3,66.9,29.86,SSW,205,5.0,7.0,89,0.12,,,0.24,Wunderground v.1.15,2013-06-01 00:00:00,
2013-05-31 20:06:00,69.9,66.8,29.85,SSW,211,6.0,7.0,90,0.06,,,0.24,Wunderground v.1.15,2013-06-01 00:06:00,
2013-05-31 20:11:00,69.8,66.7,29.84,SSW,211,4.0,4.0,90,0.04,,,0.24,Wunderground v.1.15,2013-06-01 00:11:00,
2013-05-31 20:16:00,69.8,67.1,29.85,SSW,211,3.0,4.0,91,0.00,,,0.24,Wunderground v.1.15,2013-06-01 00:16:00,
2013-05-31 20:22:00,69.8,67.1,29.85,SSW,211,1.0,2.0,91,0.00,,,0.24,Wunderground v.1.15,2013-06-01 00:22:00,
2013-05-31 20:27:00,69.7,67.0,29.84,SSW,211,1.0,3.0,91,0.00,,,0.24,Wunderground v.1.15,2013-06-01 00:27:00,
2013-05-31 20:32:00,69.6,66.9,29.84,SSW,211,2.0,3.0,91,0.00,,,0.24,Wunderground v.1.15,2013-06-01 00:32:00,
2013-05-31 20:37:00,69.5,66.8,29.84,South,175,2.0,4.0,91,0.00,,,0.24,Wunderground v.1.15,2013-06-01 00:37:00,
2013-05-31 20:43:00,69.6,66.9,29.84,South,175,2.0,2.0,91,0.00,,,0.24,Wunderground v.1.15,2013-06-01 00:43:00,
2013-05-31 20:48:00,69.5,66.8,29.84,South,175,2.0,4.0,91,0.00,,,0.24,Wunderground v.1.15,2013-06-01 00:48:00,
2013-05-31 20:53:00,69.6,67.2,29.83,South,175,3.0,3.0,92,0.00,,,0.24,Wunderground v.1.15,2013-06-01 00:53:00,
2013-05-31 20:59:00,69.6,67.2,29.84,South,175,3.0,4.0,92,0.00,,,0.24,Wunderground v.1.15,2013-06-01 00:59:00,
2013-05-31 21:05:00,69.6,67.5,29.84,South,175,2.0,3.0,93,0.00,,,0.24,Wunderground v.1.15,2013-06-01 01:05:00,
2013-05-31 21:10:00,69.5,67.4,29.83,SSE,167,2.0,5.0,93,0.00,,,0.24,Wunderground v.1.15,2013-06-01 01:10:00,
2013-05-31 21:15:00,69.4,67.6,29.83,SE,143,4.0,10.0,94,0.00,,,0.24,Wunderground v.1.15,2013-06-01 01:15:00,
2013-05-31 21:21:00,69.4,67.6,29.83,SE,142,4.0,4.0,94,0.00,,,0.24,Wunderground v.1.15,2013-06-01 01:21:00,
2013-05-31 21:27:00,69.2,67.4,29.83,SE,142,2.0,4.0,94,0.00,,,0.24,Wunderground v.1.15,2013-06-01 01:27:00,
2013-05-31 21:32:00,69.2,67.4,29.82,SE,142,3.0,5.0,94,0.00,,,0.24,Wunderground v.1.15,2013-06-01 01:32:00,
2013-05-31 21:37:00,69.1,67.3,29.83,SE,142,4.0,5.0,94,0.00,,,0.24,Wunderground v.1.15,2013-06-01 01:37:00,
2013-05-31 21:42:00,69.0,67.5,29.83,SE,142,3.0,5.0,95,0.00,,,0.24,Wunderground v.1.15,2013-06-01 01:42:00,
2013-05-31 21:48:00,69.0,67.5,29.83,SE,142,2.0,5.0,95,0.00,,,0.24,Wunderground v.1.15,2013-06-01 01:48:00,
2013-05-31 21:54:00,68.9,67.4,29.83,SE,142,2.0,2.0,95,0.00,,,0.24,Wunderground v.1.15,2013-06-01 01:54:00,
2013-05-31 21:59:00,68.9,67.4,29.83,SE,142,2.0,3.0,95,0.00,,,0.24,Wunderground v.1.15,2013-06-01 01:59:00,
2013-05-31 22:05:00,69.0,67.5,29.84,SE,142,2.0,3.0,95,0.00,,,0.24,Wunderground v.1.15,2013-06-01 02:05:00,
2013-05-31 22:10:00,68.9,67.4,29.84,SE,142,2.0,2.0,95,0.00,,,0.24,Wunderground v.1.15,2013-06-01 02:10:00,
2013-05-31 22:15:00,69.0,67.5,29.83,SE,142,2.0,4.0,95,0.00,,,0.24,Wunderground v.1.15,2013-06-01 02:15:00,
2013-05-31 22:20:00,69.0,67.5,29.84,SE,142,2.0,5.0,95,0.00,,,0.24,Wunderground v.1.15,2013-06-01 02:20:00,
2013-05-31 22:26:00,69.2,67.7,29.85,SE,142,3.0,5.0,95,0.00,,,0.24,Wunderground v.1.15,2013-06-01 02:26:00,
2013-05-31 22:31:00,69.2,67.7,29.85,SSE,160,4.0,6.0,95,0.00,,,0.24,Wunderground v.1.15,2013-06-01 02:31:00,
2013-05-31 22:37:00,69.2,67.7,29.84,SSE,164,4.0,6.0,95,0.00,,,0.24,Wunderground v.1.15,2013-06-01 02:37:00,
2013-05-31 22:42:00,69.1,67.6,29.85,SSE,164,3.0,4.0,95,0.00,,,0.24,Wunderground v.1.15,2013-06-01 02:42:00,
2013-05-31 22:47:00,69.1,67.6,29.85,SSE,164,3.0,6.0,95,0.00,,,0.24,Wunderground v.1.15,2013-06-01 02:47:00,
2013-05-31 22:52:00,69.1,67.6,29.85,SSE,164,3.0,5.0,95,0.00,,,0.24,Wunderground v.1.15,2013-06-01 02:52:00,
2013-05-31 22:58:00,69.0,67.5,29.85,SSE,164,3.0,5.0,95,0.00,,,0.24,Wunderground v.1.15,2013-06-01 02:58:00,
2013-05-31 23:03:00,69.0,67.5,29.85,SSE,167,4.0,5.0,95,0.00,,,0.24,Wunderground v.1.15,2013-06-01 03:03:00,
2013-05-31 23:08:00,69.0,67.5,29.84,South,178,4.0,5.0,95,0.00,,,0.24,Wunderground v.1.15,2013-06-01 03:08:00,
2013-05-31 23:14:00,68.9,67.4,29.84,South,176,3.0,5.0,95,0.00,,,0.24,Wunderground v.1.15,2013-06-01 03:14:00,
2013-05-31 23:19:00,68.9,67.4,29.84,South,179,3.0,5.0,95,0.00,,,0.24,Wunderground v.1.15,2013-06-01 03:19:00,
2013-05-31 23:24:00,68.9,67.4,29.84,South,188,5.0,7.0,95,0.00,,,0.24,Wunderground v.1.15,2013-06-01 03:24:00,
2013-05-31 23:30:00,68.9,67.7,29.84,South,185,5.0,5.0,96,0.00,,,0.24,Wunderground v.1.15,2013-06-01 03:30:00,
2013-05-31 23:36:00,68.9,67.7,29.83,South,185,4.0,5.0,96,0.00,,,0.24,Wunderground v.1.15,2013-06-01 03:36:00,
2013-05-31 23:42:00,68.9,67.7,29.82,SE,146,4.0,4.0,96,0.00,,,0.24,Wunderground v.1.15,2013-06-01 03:42:00,
2013-05-31 23:47:00,68.9,67.7,29.81,ESE,122,4.0,8.0,96,0.00,,,0.24,Wunderground v.1.15,2013-06-01 03:47:00,
2013-05-31 23:52:00,69.0,67.8,29.81,ESE,119,5.0,5.0,96,0.00,,,0.24,Wunderground v.1.15,2013-06-01 03:52:00,
2013-05-31 23:58:00,69.0,67.8,29.81,ESE,109,4.0,9.0,96,0.00,,,0.00,Wunderground v.1.15,2013-06-01 03:58:00,